{"data":{"norad_id":54144,"intl_designator":"2022-138AH","name":"ONEWEB-0526","alt_names":[],"object_type":"PAYLOAD","status":"ACTIVE","operator":null,"country":"UK","launch_date":"2022-10-22","launch_site_code":"SRILR","launch_vehicle":null,"mission":null,"orbit_class":"UNKNOWN","rcs_meters":null,"size_class":null,"mass_kg":null,"dimensions":null,"purposes":["comms"],"wikipedia_slug":null,"has_3d_model":false,"image_url":null,"decayed_at":null,"tle_current":{"epoch":"2026-05-25T03:30:40.375296Z","epoch_age_seconds":65696,"freshness":"FRESH","line1":"1 54144U 22138AH  26145.14630064  .00000030  00000+0  43787-4 0  9991","line2":"2 54144  87.9158 309.5569 0001680  93.5371 266.5954 13.19728051173766","mean_motion":13.19728051,"eccentricity":0.000168,"inclination_deg":87.9158,"raan_deg":309.5569,"arg_perigee_deg":93.5371,"mean_anomaly_deg":266.5954,"bstar":4.3787e-5,"rev_number":17376,"period_min":109.1133888462,"perigee_km":1184.4881597874,"apogee_km":1187.0296288079,"semimajor_km":7563.8958942976,"source":"CELESTRAK","updated_at":"2026-05-25T13:38:22.591426Z"}}}